sat.trackr.live / text

‹ back to catalog

GYEONGGISAT-1

NORAD 66771 · 2025-276DK

PAYLOAD ACTIVE UNKNOWN

§ Identity

Operator
Country
SKOR
Launch date
2025-11-28
Launch site
AFWTR
Launch vehicle
Mass (kg)
RCS (m²)

External: N2YO · Heavens-Above · Gunter

§ Orbital elements

Epoch: 2026-09-20T11:03:05.075424Z

Period
94.64 min
Inclination
97.4153°
Eccentricity
0.0000267
Mean motion
15.21615164 rev/d
Perigee alt
500.8 km
Apogee alt
501.2 km
Semi-major
6,879.1 km
B*
1.5908e-4
RAAN
335.9869°
Arg perigee
172.4338°
Mean anomaly
187.6902°
Rev number
4,492

§ Raw data

GYEONGGISAT-11 66771U 25276DK  26263.46047541  .00003522  00000+0  15908-3 0  99962 66771  97.4153 335.9869 0000267 172.4338 187.6902 15.21615164 44928

JSON: /api/v1/satellites/66771 · /tle

For live sub-satellite position, see the globe view (requires WebGL).

§ Visibility from observer

Set your observer location to see the next 7 days of passes ≥ 10°. The values pass through the URL so the page stays shareable.

No JS? Fill the form by hand. The geolocation button needs JavaScript.